Regional Weather Roundup
Issued by NWS Sioux Falls, SD

Home | Current Version | Previous Version | Text Only | Print | Product List | Glossary Off
Versions: 1 2 3 4 5 6 7 8 9 10 11 12 13 14 15 16 17 18 19 20 21 22 23 24 25 26 27 28 29 30 31 32 33 34 35 36 37 38 39 40 41 42 43 44 45 46 47 48 49 50

000
ASUS43 KFSD 281810
RWRFSD

WEATHER ROUNDUP FOR SE SOUTH DAKOTA/SW MINNESOTA/NW IOWA
NATIONAL WEATHER SERVICE SIOUX FALLS SD
100 PM CDT THU APR 28 2016

NOTE: "FAIR" INDICATES FEW OR NO CLOUDS BELOW 12,000 FEET WITH NO
SIGNIFICANT WEATHER AND OR OBSTRUCTIONS TO VISIBILITY.


SDZ038>040-050-052>070-281900-
SOUTHEAST SOUTH DAKOTA

CITY           SKY/WX    TMP DP  RH WIND       PRES   REMARKS
BROOKINGS      CLOUDY    37  33  85 NE9       29.99R
CHAMBERLAIN    CLOUDY    42  39  90 NW8       30.03R
6HR MIN TEMP:  37; 6HR MAX TEMP:  42;

HURON          LGT RAIN  39  36  89 NE12      30.03S
6HR MIN TEMP:  37; 6HR MAX TEMP:  40; 6HR PCP:  0.05;

MADISON        MIX PCPN  36  36 100 NE14      29.99S
MITCHELL       CLOUDY    41  38  89 N12       30.02S
6HR MIN TEMP:  37; 6HR MAX TEMP:  40; 6HR PCP:  0.10;

SIOUX FALLS    CLOUDY    40  36  86 N13       29.98R
6HR MIN TEMP:  38; 6HR MAX TEMP:  40; 6HR PCP:  0.02;

WINNER         CLOUDY    41  36  82 NW14      30.03S
YANKTON        CLOUDY    43  37  81 N13       29.97S
$$

MNZ071-072-080-081-089-090-097-098-281900-
SOUTHWEST MINNESOTA

CITY           SKY/WX    TMP DP  RH WIND       PRES   REMARKS
FAIRMONT       CLOUDY    39  30  70 NE13      29.94R
JACKSON        LGT RAIN  41  36  81 NE12      29.95R
LUVERNE        CLOUDY    37  34  87 N8G17     29.97S
MARSHALL       CLOUDY    38  34  85 E10       30.01R
6HR MIN TEMP:  35; 6HR MAX TEMP:  38; 6HR PCP:  0.14;

MONTEVIDEO     LGT SNOW  34  34 100 NE7       30.05R VSB 1   WCI  28
PIPESTONE      CLOUDY    37  36  93 NE9       29.97R
REDWOOD FALLS  CLOUDY    39  34  82 NE10      30.00R
TRACY          CLOUDY    39  36  87 NE9       29.99R
WINDOM         CLOUDY    39  37  93 N10       29.96R
WORTHINGTON    CLOUDY    39  36  89 N10       29.95R
$$

IAZ001>003-012>014-020>022-031-032-NEZ013-014-SDZ071-281900-
NORTHWEST IOWA

CITY           SKY/WX    TMP DP  RH WIND       PRES   REMARKS
CHEROKEE       CLOUDY    43  42  99 N8        29.94R
DENISON        CLOUDY    45  43  93 NW15      29.90R
ESTHERVILLE    LGT RAIN  41  39  93 N14       29.92R
LE MARS        CLOUDY    43  39  87 N12G17    29.96R
ORANGE CITY    CLOUDY    39  37  93 N7        29.95R
SHELDON        CLOUDY    41  39  93 N9        29.94R
SIOUX CITY     CLOUDY    46  40  79 N13       29.95R
6HR MIN TEMP:  44; 6HR MAX TEMP:  47; 6HR PCP: TRACE;

SPENCER        LGT RAIN  43  38  82 N13       29.93R
6HR MIN TEMP:  39; 6HR MAX TEMP:  43; 6HR PCP:  0.12;

STORM LAKE     PTSUNNY   43  41  93 N12       29.92R FOG
$$

ABBREVIATIONS USED IN REMARKS
   TC - TEMPERATURE IN CELSIUS
  WCI - WIND CHILL INDEX
   HX - HEAT INDEX
  VSB - VISIBILITY





USA.gov is the U.S. government's official web portal to all federal, state and local government web resources and services.